Location: Chuathbaluk
(61.5726°N, 159.2454°W)
Time: 04:51:40
(UTC+00:00)

Transit 4A - Pass Details

Date: 03 December 2020
Orbit: 864 x 980 km, 66.8° (Epoch: 26 January)

Event Time Altitude Azimuth Distance (km) Brightness Sun altitude
Rises 22:23:53 0° 285° (WNW) 3,689 10.9 6.2°
Reaches altitude 10° 22:26:32 10° 290° (WNW) 2,742 10.2 6.2°
Maximum altitude 22:32:51 56° 8° (N) 1,160 8.2 6.2°
Drops below altitude 10° 22:39:07 10° 86° (E) 2,712 10.3 6.1°
Sets 22:41:43 0° 91° (E) 3,645 11.0 6.1°
